Volver al catálogo

USA 367

ActivoMilitarVLEO
NORAD 59827·PAYLOAD·🇺🇸 United States

Lanzado May 22, 2024 desde Vandenberg Space Force Base

Loading…

Próximos Pases (próximas 24 horas)

TLE

ObsoletoSource: Mike McCants

Época: Aug 8, 2026, 00:23 UTC

1 59827U 24096P   26220.01662085 0.00000000  00000-0  00000-0 0    05
2 59827  70.0227 181.8948 0002000 221.9149 138.0851 14.96713443    08

Sigue USA 367 en tiempo real con AllMySat

Download on the App Store